Flag for U.S.A. Weather past 2 weeks in Thousand Oaks, California, U.S.A.

Now
54 °F

Overcast.


Feels Like: 52 °F
Forecast: 45 / 65 °F
Wind: 7 mph from Northeast

Location: Camarillo Airport

Current Time: Feb 27, 2015 at 4:20:57 AM

Latest Report: Feb 27, 2015 at 3:55 AM


Visibility: 10 mi

Pressure: 29.82 "Hg

Humidity: 83%

Dew point: 49 °F

Location of Thousand OaksLocation

Historic Weather in Thousand Oaks — Graph

°F

Thousand Oaks temperature yesterday

Maximum temperature yesterday: 67 °F (at 1:55 PM)
Minimum temperature yesterday: 46 °F (at 3:55 AM)
Average temperature yesterday: 56 °F

Past Weeks' High & Low Weather Summary

 TemperatureHumidityPressure
High87 °F (Feb 13, 11:55 AM)96% (Feb 19, 3:55 AM)30.29 "Hg (Feb 19, 3:55 AM)
Low43 °F (Feb 24, 2:55 AM)10% (Feb 13, 11:55 AM)29.83 "Hg (Feb 27, 2:55 AM)
Average60 °F65%30.04 "Hg
* Reported Feb 12 2:55 AM — Feb 27 2:55 AM, Thousand Oaks, Weather by CustomWeather, © 2015

Note: Actual official high and low records may vary slightly from our data, if they occured in-between our weather recording intervals... More about our weather records

Advertising

Thousand Oaks weather history for previous 24 hours

 ConditionsComfort  
Time TempWeatherWind HumidityBarometerVisibility
2:55 AM
Fri, Feb 27
52 °FPassing clouds.8 mph83%29.83 "Hg10 mi
1:55 AM50 °FPassing clouds.3 mph86%29.85 "Hg9 mi
12:55 AM51 °FClear.No wind83%29.84 "Hg9 mi
11:55 PM
Thu, Feb 26
51 °FClear.3 mph86%29.86 "Hg9 mi
10:55 PM54 °FClear.5 mph83%29.86 "Hg9 mi
9:55 PM54 °FClear.No wind80%29.87 "Hg8 mi
8:55 PM56 °FClear.No wind81%29.87 "Hg8 mi
7:55 PM57 °FClear.No wind78%29.88 "Hg8 mi
6:55 PM60 °FClear.No wind72%29.88 "Hg10 mi
5:55 PM60 °FClear.5 mph75%29.86 "Hg10 mi
4:55 PM62 °FSunny.7 mph70%29.86 "Hg10 mi
3:55 PM64 °FSunny.9 mph65%29.86 "Hg10 mi
2:55 PM66 °FSunny.7 mph56%29.87 "Hg10 mi
1:55 PM67 °FSunny.12 mph47%29.87 "Hg10 mi
12:55 PM66 °FSunny.10 mph54%29.91 "Hg10 mi
11:55 AM65 °FSunny.8 mph63%29.93 "Hg10 mi
10:55 AM64 °FSunny.5 mph61%29.96 "Hg10 mi
9:55 AM62 °FSunny.No wind65%29.97 "Hg10 mi
8:55 AM60 °FSunny.5 mph72%29.98 "Hg9 mi
7:55 AM54 °FSunny.6 mph74%29.98 "Hg10 mi
6:55 AM47 °FSunny.6 mph83%29.98 "Hg10 mi
5:55 AM46 °FPassing clouds.5 mph83%29.97 "Hg10 mi
4:55 AM46 °FClear.No wind83%29.97 "Hg10 mi
Weather by CustomWeather, © 2015

See weather overviewHow to use our weather pages